"Pseudo-MPEC" for P22oVTH

Created 2026 Aug 14 18:35:20 UT using Find_Orb

Click here for an explanation of pseudo-MPECs

 
 Astrometry: 
     P22oVTH 0C2026 07 27.48848923 15 18.863+11 37 26.25   ~8E1Z 21.18GVNEOCPF51
     P22oVTH 0C2026 07 27.50041923 15 19.140+11 37 39.39   ~8E1Z 21.27GVNEOCPF51
     P22oVTH 0C2026 07 27.51243423 15 19.402+11 37 51.84   ~8E1Z 21.60GVNEOCPF51
     P22oVTH 0C2026 07 27.52458623 15 19.669+11 38 04.95   ~8E1Z 21.23GVNEOCPF51
     P22oVTH*0C2026 08 07.41816023 18 08.189+14 40 41.56   ~87Co 21.32wXNEOCPF52
     P22oVTH 0C2026 08 07.42893623 18 08.217+14 40 51.84   ~87Co 21.28wXNEOCPF52
     P22oVTH 0C2026 08 07.43974723 18 08.229+14 41 02.04   ~87Co 21.12wXNEOCPF52
     P22oVTH 0C2026 08 07.45053423 18 08.263+14 41 12.25   ~87Co 21.12wXNEOCPF52
     P22oVTH 1C2026 08 07.96767023 18 10.638+14 49 10.89   ~87No 20.4 GXNEOCP033
     P22oVTH 1C2026 08 07.96914023 18 10.627+14 49 12.30   ~87No 20.9 GXNEOCP033
     P22oVTH 1C2026 08 07.97060023 18 10.638+14 49 13.70   ~87No 20.7 GXNEOCP033
     P22oVTH 1C2026 08 07.97206023 18 10.609+14 49 14.70   ~87No 20.7 GXNEOCP033
     P22oVTH KC2026 08 08.28426823 18 11.82 +14 54 07.0    ~887K 21.3 GVNEOCPH21
     P22oVTH KC2026 08 08.28706623 18 11.81 +14 54 09.7    ~887K 21.4 GVNEOCPH21
     P22oVTH KC2026 08 08.28977123 18 11.82 +14 54 12.2    ~887K 21.3 GVNEOCPH21
     P22oVTH 0C2026 08 08.57235323 18 12.415+14 58 36.11   ~88H5 21.02GVNEOCPF51
     P22oVTH 0C2026 08 08.57317423 18 12.416+14 58 36.83   ~88H5 21.03GVNEOCPF51
     P22oVTH KC2026 08 08.92037023 18 13.930+15 03 50.98   ~88N5 19.7 GXNEOCPL49
     P22oVTH KC2026 08 08.93039423 18 13.913+15 04 00.23   ~88N5 19.4 GXNEOCPL49
     P22oVTH KC2026 08 08.94076423 18 13.927+15 04 10.02   ~88N5 19.7 GXNEOCPL49
     P22oVTH 0C2026 08 14.42739823 17 59.024+16 23 49.07   ~8ECZ 20.98wXNEOCPF52
     P22oVTH 0C2026 08 14.43879423 17 58.908+16 23 58.57   ~8ECZ 21.28wXNEOCPF52
     P22oVTH 0C2026 08 14.45023523 17 58.759+16 24 07.85   ~8ECZ 20.99wXNEOCPF52
     P22oVTH 0C2026 08 14.46176723 17 58.636+16 24 17.32   ~8ECZ 20.72wXNEOCPF52

Station data:
(033) Karl Schwarzschild Observatory, Tautenburg  (N50.980139 E11.711240)
   Germany.  Observer B. Stecklum. 1.34-m f/3 Schmidt + CCD.
(F51) Pan-STARRS 1, Haleakala  (N20.707234 W156.255910)  US/Hawaii.
   Observers J. Herman, T. Lowe, P. Minguez, A. Schultz, I. Smith. Measurers
   K. Chambers, T. de Boer, J. Fairlamb, H. Gao, M. Huber, C.-C. Lin, E.
   Magnier, Y. Ramanjooloo, R. Wainscoat, R. Weryk. 1.8-m Ritchey-Chrétien +
   CCD.
(F52) Pan-STARRS 2, Haleakala  (N20.707382 W156.255910)  US/Hawaii.
   Observers J. Herman, T. Lowe, P. Minguez, A. Schultz, I. Smith. Measurers
   K. Chambers, T. de Boer, J. Fairlamb, H. Gao, M. Huber, C.-C. Lin, E.
   Magnier, Y. Ramanjooloo, R. Wainscoat, R. Weryk. 1.8-m Ritchey-Chrétien +
   CCD.
(H21) Astronomical Research Observatory, Westfield  (N39.483054 W87.968270)
   US/Illinois.  Observer R. Holmes. Measurers S. Foglia, L. Buzzi, T.
   Linder, R. Holmes. 0.40-m f/5.32 astrograph + CCD.
(L49) VEGA-Sternwarte, Dorfleiten  (N47.923896 E13.007300)  Austria.

Orbital elements:  P22oVTH
   Perihelion 2026 Aug 30.534712 +/- 0.0366 TT = 12:49:59.1 (JD 2461283.034712)
Epoch 2026 Aug 14.0 TT = JDT 2461266.5   Earth MOID: 0.7557      AutoNEOCP
M 356.895900260 +/- 0.008           (J2000 ecliptic)
n   0.187732308 +/- 0.000111        Peri.   64.380325 +/- 0.023
a   3.020716966 +/- 0.00119         Node   281.287023 +/- 0.007
e   0.42702835 +/- 0.000179         Incl.   10.960141 +/- 0.0016
P   5.25007                H 19.01  G  0.15   U  6.6
q 1.730785174 +/- 0.000139    Q 4.310648758 +/- 0.00223
From 24 observations 2026 July 27-Aug. 14; mean residual 0".15
Residuals in arcseconds: 
260727 F51  .18-  .20-    260807 033  .07+  .09+    260808 F51  .06+  .07-    
260727 F51  .05+  .23+    260807 033  .13-  .12+    260808 L49  .16+  .04-    
260727 F51  .05+  .11-    260807 033  .02-  .15+    260808 L49  .13-  .06-    
260727 F51  .09+  .08+    260807 033  .48-  .21-    260808 L49  .04+  .15+    
260807 F52  .09-  .04-    260808 H21  .14+  .27+    260814 F52  .12-  .07+    
260807 F52  .00   .02+    260808 H21  .02-  .37+    260814 F52  .11+  .12+    
260807 F52  .11-  .03-    260808 H21  .11+  .35+    260814 F52  .10-  .07-    
260807 F52  .12+  .03-    260808 F51  .03+  .03-    260814 F52  .10+  .13-    

Ephemerides (geocentric):
Date (UTC) HH   RA             Dec           delta  r     elong  mag " sig PA
---- --------  ------------   ------------  ------ ------ -----  --- --------
2026 08 14 19  23 17 55.761   +16 28 47.92  .83181 1.7360 140.3 20.9 .066  91
2026 08 14 20  23 17 55.410   +16 29 21.82  .83163 1.7360 140.3 20.9 .067  91
2026 08 14 21  23 17 55.056   +16 29 55.69  .83144 1.7359 140.3 20.9 .069  91
2026 08 14 22  23 17 54.699   +16 30 29.53  .83126 1.7359 140.3 20.9 .070  91
2026 08 14 23  23 17 54.339   +16 31 03.33  .83107 1.7359 140.4 20.9 .071  91
2026 08 15 00  23 17 53.976   +16 31 37.10  .83089 1.7359 140.4 20.9 .072  90
2026 08 15 01  23 17 53.610   +16 32 10.84  .83070 1.7358 140.4 20.9 .073  90
2026 08 15 02  23 17 53.241   +16 32 44.54  .83052 1.7358 140.5 20.9 .074  90
2026 08 15 03  23 17 52.869   +16 33 18.21  .83034 1.7358 140.5 20.9 .075  90
2026 08 15 04  23 17 52.494   +16 33 51.84  .83015 1.7358 140.5 20.9 .076  90
2026 08 15 05  23 17 52.115   +16 34 25.44  .82997 1.7357 140.5 20.9 .078  90
2026 08 15 06  23 17 51.734   +16 34 59.01  .82979 1.7357 140.6 20.9 .079  90
2026 08 15 07  23 17 51.350   +16 35 32.54  .82960 1.7357 140.6 20.9 .080  90
2026 08 15 08  23 17 50.962   +16 36 06.04  .82942 1.7356 140.6 20.9 .081  90
2026 08 15 09  23 17 50.572   +16 36 39.51  .82924 1.7356 140.7 20.9 .082  90
2026 08 15 10  23 17 50.178   +16 37 12.94  .82906 1.7356 140.7 20.9 .084  90
2026 08 15 11  23 17 49.782   +16 37 46.34  .82887 1.7356 140.7 20.9 .085  90
2026 08 15 12  23 17 49.382   +16 38 19.70  .82869 1.7355 140.7 20.9 .086  90
2026 08 15 13  23 17 48.980   +16 38 53.03  .82851 1.7355 140.8 20.9 .087  90
2026 08 15 14  23 17 48.574   +16 39 26.32  .82833 1.7355 140.8 20.9 .088  90
2026 08 15 15  23 17 48.165   +16 39 59.58  .82815 1.7355 140.8 20.9 .089  90
2026 08 15 16  23 17 47.754   +16 40 32.81  .82797 1.7354 140.8 20.8 .091  90
2026 08 15 17  23 17 47.339   +16 41 06.00  .82779 1.7354 140.9 20.8 .092  90
2026 08 15 18  23 17 46.921   +16 41 39.16  .82761 1.7354 140.9 20.8 .093  90
2026 08 15 19  23 17 46.500   +16 42 12.29  .82743 1.7354 140.9 20.8 .094  90
2026 08 15 20  23 17 46.077   +16 42 45.38  .82725 1.7353 141.0 20.8 .096  90
2026 08 15 21  23 17 45.650   +16 43 18.43  .82707 1.7353 141.0 20.8 .097  89
2026 08 15 22  23 17 45.220   +16 43 51.45  .82689 1.7353 141.0 20.8 .098  89
2026 08 15 23  23 17 44.787   +16 44 24.44  .82671 1.7353 141.0 20.8 .099  89
2026 08 16 00  23 17 44.351   +16 44 57.39  .82653 1.7352 141.1 20.8 .101  89
2026 08 16 01  23 17 43.913   +16 45 30.31  .82636 1.7352 141.1 20.8 .102  89
2026 08 16 02  23 17 43.471   +16 46 03.19  .82618 1.7352 141.1 20.8 .103  89
2026 08 16 03  23 17 43.026   +16 46 36.04  .82600 1.7352 141.2 20.8 .104  89
2026 08 16 04  23 17 42.578   +16 47 08.85  .82582 1.7351 141.2 20.8 .106  89
2026 08 16 05  23 17 42.127   +16 47 41.63  .82565 1.7351 141.2 20.8 .107  89
2026 08 16 06  23 17 41.674   +16 48 14.37  .82547 1.7351 141.2 20.8 .108  89
2026 08 16 07  23 17 41.217   +16 48 47.08  .82529 1.7351 141.3 20.8 .110  89
2026 08 16 08  23 17 40.757   +16 49 19.75  .82512 1.7350 141.3 20.8 .111  89
2026 08 16 09  23 17 40.294   +16 49 52.39  .82494 1.7350 141.3 20.8 .112  89
2026 08 16 10  23 17 39.829   +16 50 24.99  .82476 1.7350 141.4 20.8 .114  89
2026 08 16 11  23 17 39.360   +16 50 57.56  .82459 1.7350 141.4 20.8 .115  89
2026 08 16 12  23 17 38.888   +16 51 30.10  .82441 1.7349 141.4 20.8 .116  89
2026 08 16 13  23 17 38.414   +16 52 02.60  .82424 1.7349 141.4 20.8 .118  89
2026 08 16 14  23 17 37.936   +16 52 35.06  .82406 1.7349 141.5 20.8 .119  89
2026 08 16 15  23 17 37.455   +16 53 07.49  .82389 1.7349 141.5 20.8 .120  89
2026 08 16 16  23 17 36.972   +16 53 39.88  .82371 1.7348 141.5 20.8 .122  89
2026 08 16 17  23 17 36.485   +16 54 12.24  .82354 1.7348 141.5 20.8 .123  89
2026 08 16 18  23 17 35.996   +16 54 44.56  .82337 1.7348 141.6 20.8 .124  89